Dades meteomassalio
Diari Summary for Agost 14, 2017 Units:  Metric    English   Both
« Previous Day
Next Day »
Diari Semanal Mensual Anual Personalitzat
  Maxima: Minima: Mijana:
Temperatura: -17.8 °C -9.6 °C -3.8 °C
Rosada: -17.8 °C -11.6 °C -10.2 °C
Humitat: Humidity % 29 % 52 %
Velocitat del vent: 0 km/h 0 km/h 13.7 km/h
Racha vent: 0 km/h - -
Vent:- - ESE
Pressio: 0 hPa 34313.7 hPa -
Pluja: 0 mm    
Historical Graphs
 
 
Tabular Data for Agost 14, 2017
Time Temperature Dew Point Pressure Wind Wind Speed Wind Gust Humidity Rainfall Rate (Hourly) solar Conditions
-17.8 °C -17.8 °C 0 hPa Calm     Humidity % 0 mm SolarRadiationWatts/m^2 W/m2 Conditions
00:03 -5.1 °C -9.1 °C 34405.1 hPa Calm     64 % 0 mm 0.0 W/m2 CLR
00:08 -5.1 °C -9.2 °C 34395 hPa Calm     63 % 0 mm 0.0 W/m2 CLR
00:13 -5.2 °C -9.2 °C 34395 hPa Calm     64 % 0 mm 0.0 W/m2 CLR
00:18 -5.3 °C -9.3 °C 34395 hPa Calm     64 % 0 mm 0.0 W/m2 CLR
00:23 -5.4 °C -9.2 °C 34395 hPa East 3.1 km/h 3.1 km/h 65 % 0 mm 0.0 W/m2 CLR
00:28 -5.4 °C -9.2 °C 34395 hPa Calm     66 % 0 mm 0.0 W/m2 CLR
00:33 -5.6 °C -9.1 °C 34395 hPa Calm     67 % 0 mm 0.0 W/m2 CLR
00:39 -5.6 °C -9.1 °C 34395 hPa Calm     67 % 0 mm 0.0 W/m2 CLR
00:44 -5.6 °C -9.3 °C 34395 hPa Calm     66 % 0 mm 0.0 W/m2 CLR
00:49 -5.7 °C -9.3 °C 34395 hPa Calm     67 % 0 mm 0.0 W/m2 CLR
00:54 -5.8 °C -9.2 °C 34395 hPa Calm     68 % 0 mm 0.0 W/m2 CLR
00:59 -5.9 °C -9.2 °C 34405.1 hPa Calm     69 % 0 mm 0.0 W/m2 CLR
01:04 -5.8 °C -9.1 °C 34395 hPa Calm     69 % 0 mm 0.0 W/m2 CLR
01:09 -5.7 °C -9.1 °C 34395 hPa SE 7.7 km/h 7.7 km/h 68 % 0 mm 0.0 W/m2 CLR
01:14 -5.7 °C -9.1 °C 34395 hPa Calm     68 % 0 mm 0.0 W/m2 CLR
01:19 -5.7 °C -9.1 °C 34395 hPa Calm     68 % 0 mm 0.0 W/m2 CLR
01:24 -5.7 °C -9 °C 34405.1 hPa ESE 10.3 km/h 10.3 km/h 69 % 0 mm 0.0 W/m2 CLR
01:29 -5.7 °C -9.1 °C 34395 hPa East 9 km/h 9 km/h 69 % 0 mm 0.0 W/m2 CLR
01:34 -5.7 °C -9.1 °C 34395 hPa Calm     69 % 0 mm 0.0 W/m2 CLR
01:39 -5.8 °C -9.1 °C 34405.1 hPa Calm     69 % 0 mm 0.0 W/m2 CLR
01:44 -5.8 °C -9 °C 34405.1 hPa Calm     70 % 0 mm 0.0 W/m2 CLR
01:49 -5.9 °C -9.1 °C 34405.1 hPa Calm     70 % 0 mm 0.0 W/m2 CLR
01:54 -5.9 °C -9.1 °C 34405.1 hPa Calm     70 % 0 mm 0.0 W/m2 CLR
01:59 -5.9 °C -9.1 °C 34405.1 hPa Calm     70 % 0 mm 0.0 W/m2 CLR
02:04 -6 °C -9 °C 34405.1 hPa Calm     71 % 0 mm 0.0 W/m2 CLR
02:09 -6 °C -8.9 °C 34405.1 hPa Calm     72 % 0 mm 0.0 W/m2 CLR
02:14 -6 °C -8.9 °C 34405.1 hPa ESE 9 km/h   72 % 0 mm 0.0 W/m2 CLR
02:19 -6 °C -8.9 °C 34405.1 hPa Calm     72 % 0 mm 0.0 W/m2 CLR
02:24 -6.1 °C -9.1 °C 34405.1 hPa Calm     71 % 0 mm 0.0 W/m2 CLR
02:29 -6.2 °C -9.3 °C 34405.1 hPa Calm     70 % 0 mm 0.0 W/m2 CLR
02:34 -6.3 °C -9.6 °C 34405.1 hPa Calm     69 % 0 mm 0.0 W/m2 CLR
02:39 -6.4 °C -9.7 °C 34405.1 hPa Calm     69 % 0 mm 0.0 W/m2 CLR
02:44 -6.5 °C -9.7 °C 34395 hPa Calm     70 % 0 mm 0.0 W/m2 CLR
02:49 -6.6 °C -9.5 °C 34405.1 hPa Calm     72 % 0 mm 0.0 W/m2 CLR
02:54 -6.6 °C -9.3 °C 34405.1 hPa Calm     74 % 0 mm 0.0 W/m2 CLR
02:59 -6.6 °C -9.3 °C 34405.1 hPa Calm     74 % 0 mm 0.0 W/m2 CLR
03:04 -6.6 °C -9.4 °C 34405.1 hPa Calm     73 % 0 mm 0.0 W/m2 CLR
03:09 -6.6 °C -9.4 °C 34395 hPa Calm     73 % 0 mm 0.0 W/m2 CLR
03:14 -6.7 °C -9.5 °C 34395 hPa Calm     73 % 0 mm 0.0 W/m2 CLR
03:19 -6.8 °C -9.6 °C 34395 hPa Calm     73 % 0 mm 0.0 W/m2 CLR
03:24 -6.9 °C -9.6 °C 34395 hPa Calm     74 % 0 mm 0.0 W/m2 CLR
03:29 -6.9 °C -9.6 °C 34395 hPa Calm     74 % 0 mm 0.0 W/m2 CLR
03:34 -7 °C -9.7 °C 34395 hPa Calm     74 % 0 mm 0.0 W/m2 CLR
03:39 -7.1 °C -9.7 °C 34395 hPa Calm     74 % 0 mm 0.0 W/m2 CLR
03:44 -7.2 °C -9.8 °C 34405.1 hPa Calm     74 % 0 mm 0.0 W/m2 CLR
03:49 -7.3 °C -9.9 °C 34405.1 hPa Calm     74 % 0 mm 0.0 W/m2 CLR
03:54 -7.4 °C -9.9 °C 34405.1 hPa Calm     75 % 0 mm 0.0 W/m2 CLR
03:59 -7.4 °C -9.9 °C 34405.1 hPa Calm     75 % 0 mm 0.0 W/m2 CLR
04:04 -7.6 °C -10.2 °C 34395 hPa Calm     74 % 0 mm 0.0 W/m2 CLR
04:09 -7.7 °C -10.1 °C 34395 hPa Calm     76 % 0 mm 0.0 W/m2 CLR
04:14 -7.7 °C -10 °C 34395 hPa Calm     77 % 0 mm 0.0 W/m2 CLR
04:19 -7.8 °C -10.1 °C 34395 hPa Calm     77 % 0 mm 0.0 W/m2 CLR
04:24 -7.9 °C -10.2 °C 34395 hPa Calm     77 % 0 mm 0.0 W/m2 CLR
04:29 -7.9 °C -10.3 °C 34395 hPa Calm     76 % 0 mm 0.0 W/m2 CLR
04:34 -8.1 °C -10.3 °C 34395 hPa Calm     77 % 0 mm 0.0 W/m2 CLR
04:39 -8.1 °C -10.3 °C 34395 hPa Calm     78 % 0 mm 0.0 W/m2 CLR
04:45 -8.2 °C -10.3 °C 34395 hPa Calm     78 % 0 mm 0.0 W/m2 CLR
04:50 -8.2 °C -10.4 °C 34395 hPa Calm     78 % 0 mm 0.0 W/m2 CLR
04:55 -8.3 °C -10.4 °C 34395 hPa Calm     78 % 0 mm 0.0 W/m2 CLR
05:00 -8.3 °C -10.4 °C 34395 hPa Calm     79 % 0 mm 0.0 W/m2 CLR
05:05 -8.4 °C -10.3 °C 34395 hPa Calm     80 % 0 mm 0.0 W/m2 CLR
05:10 -8.4 °C -10.4 °C 34395 hPa Calm     80 % 0 mm 0.0 W/m2 CLR
05:15 -8.4 °C -10.3 °C 34395 hPa Calm     81 % 0 mm 0.0 W/m2 CLR
05:20 -8.4 °C -10.3 °C 34395 hPa Calm     81 % 0 mm 0.0 W/m2 CLR
05:25 -8.5 °C -10.4 °C 34395 hPa Calm     80 % 0 mm 0.0 W/m2 CLR
05:30 -8.6 °C -10.5 °C 34395 hPa Calm     80 % 0 mm 0.0 W/m2 CLR
05:35 -8.6 °C -10.4 °C 34395 hPa Calm     81 % 0 mm 0.0 W/m2 CLR
05:40 -8.7 °C -10.4 °C 34395 hPa Calm     81 % 0 mm 0.0 W/m2 CLR
05:45 -8.7 °C -10.6 °C 34395 hPa Calm     81 % 0 mm 0.0 W/m2 CLR
05:50 -8.8 °C -10.7 °C 34395 hPa Calm     80 % 0 mm 0.0 W/m2 CLR
05:55 -8.8 °C -10.7 °C 34395 hPa Calm     81 % 0 mm 0.0 W/m2 CLR
06:00 -8.9 °C -10.6 °C 34395 hPa Calm     82 % 0 mm 0.0 W/m2 CLR
06:05 -8.9 °C -10.7 °C 34395 hPa Calm     81 % 0 mm 0.0 W/m2 CLR
06:10 -9 °C -10.8 °C 34395 hPa Calm     81 % 0 mm 0.0 W/m2 CLR
06:15 -9 °C -10.8 °C 34395 hPa Calm     81 % 0 mm 0.0 W/m2 CLR
06:20 -9.1 °C -10.7 °C 34395 hPa Calm     82 % 0 mm 0.0 W/m2 CLR
06:25 -9.1 °C -10.8 °C 34395 hPa Calm     82 % 0 mm 0.0 W/m2 CLR
06:30 -9.2 °C -10.9 °C 34395 hPa Calm     82 % 0 mm 0.0 W/m2 CLR
06:35 -9.2 °C -10.8 °C 34395 hPa Calm     83 % 0 mm 0.0 W/m2 CLR
06:40 -9.2 °C -10.9 °C 34405.1 hPa Calm     82 % 0 mm 0.0 W/m2 CLR
06:45 -9.2 °C -10.8 °C 34405.1 hPa Calm     83 % 0 mm 0.0 W/m2 CLR
06:50 -9.3 °C -10.9 °C 34405.1 hPa Calm     82 % 0 mm 0.0 W/m2 CLR
06:55 -9.3 °C -11 °C 34405.1 hPa Calm     82 % 0 mm 0.0 W/m2 CLR
07:00 -9.3 °C -10.9 °C 34405.1 hPa Calm     83 % 0 mm 0.0 W/m2 OVC
07:05 -9.4 °C -11 °C 34405.1 hPa Calm     83 % 0 mm 0.0 W/m2 OVC
07:10 -9.4 °C -11 °C 34405.1 hPa Calm     83 % 0 mm 5.0 W/m2 OVC
07:15 -9.4 °C -11.1 °C 34405.1 hPa Calm     83 % 0 mm 7.0 W/m2 BKN
07:20 -9.5 °C -11.1 °C 34405.1 hPa Calm     83 % 0 mm 11.0 W/m2 BKN
07:25 -9.5 °C -11.1 °C 34405.1 hPa Calm     83 % 0 mm 14.0 W/m2 BKN
07:30 -9.6 °C -11.2 °C 34405.1 hPa Calm     83 % 0 mm 16.0 W/m2 BKN
07:35 -9.5 °C -11.1 °C 34405.1 hPa Calm     83 % 0 mm 19.0 W/m2 BKN
07:40 -9.4 °C -11.1 °C 34405.1 hPa Calm     83 % 0 mm 25.0 W/m2 BKN
07:45 -9.3 °C -11.1 °C 34405.1 hPa Calm     82 % 0 mm 33.0 W/m2 BKN
07:50 -9.3 °C -10.9 °C 34405.1 hPa Calm     82 % 0 mm 42.0 W/m2 BKN
07:55 -9.2 °C -11 °C 34405.1 hPa Calm     81 % 0 mm 46.0 W/m2 SCT
08:00 -9.1 °C -10.9 °C 34418.7 hPa Calm     81 % 0 mm 56.0 W/m2 SCT
08:05 -8.9 °C -10.8 °C 34418.7 hPa Calm     80 % 0 mm 81.0 W/m2 FEW
08:10 -8.7 °C -10.8 °C 34418.7 hPa Calm     79 % 0 mm 97.0 W/m2 FEW
08:15 -8.6 °C -10.7 °C 34418.7 hPa Calm     78 % 0 mm 111.0 W/m2 CLR
08:20 -8.4 °C -10.7 °C 34418.7 hPa Calm     77 % 0 mm 128.0 W/m2 CLR
08:25 -8.3 °C -10.7 °C 34418.7 hPa Calm     76 % 0 mm 144.0 W/m2 CLR
08:30 -8.2 °C -10.6 °C 34418.7 hPa Calm     76 % 0 mm 165.0 W/m2 CLR
08:35 -8 °C -10.4 °C 34418.7 hPa Calm     76 % 0 mm 183.0 W/m2 CLR
08:40 -7.8 °C -10.2 °C 34418.7 hPa Calm     76 % 0 mm 200.0 W/m2 CLR
08:45 -7.6 °C -10.2 °C 34418.7 hPa Calm     74 % 0 mm 218.0 W/m2 CLR
08:50 -7.4 °C -9.9 °C 34418.7 hPa Calm     75 % 0 mm 232.0 W/m2 CLR
08:55 -7.3 °C -9.8 °C 34418.7 hPa Calm     75 % 0 mm 246.0 W/m2 CLR
09:00 -7.1 °C -9.8 °C 34418.7 hPa Calm     73 % 0 mm 264.0 W/m2 CLR
09:02 -6.9 °C -9.8 °C 34418.7 hPa Calm     72 % 0 mm 271.0 W/m2 CLR
09:07 -6.7 °C -9.9 °C 34418.7 hPa Calm     69 % 0 mm 288.0 W/m2 CLR
09:12 -6.4 °C -9.9 °C 34418.7 hPa Calm     67 % 0 mm 302.0 W/m2 CLR
09:17 -6.2 °C -9.9 °C 34418.7 hPa Calm     65 % 0 mm 318.0 W/m2 CLR
09:22 -6 °C -9.9 °C 34428.8 hPa Calm     64 % 0 mm 334.0 W/m2 CLR
09:27 -5.7 °C -9.9 °C 34428.8 hPa Calm     62 % 0 mm 53.0 W/m2 CLR
09:32 -5.5 °C -9.9 °C 34428.8 hPa Calm     61 % 0 mm 336.0 W/m2 CLR
09:37 -5.4 °C -9.9 °C 34418.7 hPa Calm     60 % 0 mm 381.0 W/m2 CLR
09:42 -5.3 °C -9.9 °C 34418.7 hPa Calm     59 % 0 mm 397.0 W/m2 CLR
09:47 -5.1 °C -10.4 °C 34418.7 hPa Calm     55 % 0 mm 411.0 W/m2 CLR
09:52 -4.8 °C -10.6 °C 34418.7 hPa Calm     52 % 0 mm 425.0 W/m2 CLR
09:57 -4.6 °C -10.5 °C 34418.7 hPa Calm     51 % 0 mm 445.0 W/m2 CLR
10:02 -4.3 °C -10.7 °C 34418.7 hPa Calm     49 % 0 mm 461.0 W/m2 CLR
10:07 -4.3 °C -10.8 °C 34418.7 hPa Calm     48 % 0 mm 478.0 W/m2 CLR
10:12 -4.1 °C -11 °C 34418.7 hPa Calm     46 % 0 mm 490.0 W/m2 CLR
10:17 -3.8 °C -11.1 °C 34418.7 hPa Calm     44 % 0 mm 506.0 W/m2 CLR
10:22 -3.5 °C -10.4 °C 34418.7 hPa Calm     46 % 0 mm 519.0 W/m2 CLR
10:27 -3.2 °C -9.8 °C 34405.1 hPa Calm     48 % 0 mm 533.0 W/m2 CLR
10:32 -3.1 °C -9.7 °C 34405.1 hPa NNE 9 km/h 9 km/h 48 % 0 mm 548.0 W/m2 CLR
10:37 -2.9 °C -9.6 °C 34405.1 hPa ENE 9 km/h 9 km/h 48 % 0 mm 561.0 W/m2 CLR
10:42 -2.8 °C -9.4 °C 34405.1 hPa NE 15 km/h 15 km/h 48 % 0 mm 577.0 W/m2 CLR
10:47 -2.8 °C -9.4 °C 34405.1 hPa NE 7.7 km/h 7.7 km/h 48 % 0 mm 587.0 W/m2 CLR
10:52 -2.7 °C -9.3 °C 34405.1 hPa NE 17.9 km/h 17.9 km/h 48 % 0 mm 601.0 W/m2 CLR
10:57 -2.6 °C -9.4 °C 34405.1 hPa NNE 15.6 km/h 15.6 km/h 47 % 0 mm 612.0 W/m2 CLR
11:02 -2.4 °C -9.7 °C 34405.1 hPa NE 15 km/h 15 km/h 45 % 0 mm 624.0 W/m2 CLR
11:07 -2.4 °C -9.8 °C 34405.1 hPa ENE 17.9 km/h 17.9 km/h 44 % 0 mm 636.0 W/m2 CLR
11:10 -2.3 °C -9.8 °C 34405.1 hPa ENE 10.3 km/h 10.3 km/h 44 % 0 mm 643.0 W/m2 CLR
11:15 -2.3 °C -9.7 °C 34405.1 hPa NE 15 km/h 15 km/h 44 % 0 mm 657.0 W/m2 CLR
11:20 -2.1 °C -9.7 °C 34405.1 hPa NE 11.9 km/h 11.9 km/h 43 % 0 mm 664.0 W/m2 CLR
11:25 -1.9 °C -10.4 °C 34405.1 hPa NNE 6 km/h 6 km/h 39 % 0 mm 675.0 W/m2 CLR
11:30 -1.8 °C -10.5 °C 34405.1 hPa ENE 9 km/h 9 km/h 38 % 0 mm 682.0 W/m2 CLR
11:35 -1.6 °C -10.6 °C 34405.1 hPa East 15 km/h 15 km/h 37 % 0 mm 698.0 W/m2 CLR
11:40 -1.6 °C -10.1 °C 34405.1 hPa Calm     39 % 0 mm 705.0 W/m2 CLR
11:45 -1.4 °C -9.8 °C 34405.1 hPa NE 11.9 km/h 11.9 km/h 40 % 0 mm 721.0 W/m2 CLR
11:50 -1.3 °C -9.9 °C 34405.1 hPa NE 23.8 km/h 23.8 km/h 39 % 0 mm 733.0 W/m2 CLR
11:55 -1.3 °C -10.3 °C 34405.1 hPa ENE 9 km/h 9 km/h 37 % 0 mm 745.0 W/m2 CLR
12:00 -1.2 °C -9.9 °C 34395 hPa NE 12.9 km/h 12.9 km/h 38 % 0 mm 754.0 W/m2 CLR
12:05 -1.1 °C -10.1 °C 34405.1 hPa NNE 11.9 km/h 11.9 km/h 37 % 0 mm 761.0 W/m2 CLR
12:10 -0.9 °C -10.2 °C 34395 hPa Calm     36 % 0 mm 775.0 W/m2 CLR
12:15 -0.7 °C -10.3 °C 34395 hPa NE 15 km/h 15 km/h 35 % 0 mm 786.0 W/m2 CLR
12:20 -0.7 °C -10.2 °C 34395 hPa NE 17.9 km/h 17.9 km/h 35 % 0 mm 791.0 W/m2 CLR
12:25 -0.6 °C -9.9 °C 34395 hPa Calm     36 % 0 mm 798.0 W/m2 CLR
12:30 -0.3 °C -10.4 °C 34395 hPa ENE 12.9 km/h 12.9 km/h 33 % 0 mm 809.0 W/m2 CLR
12:35 -0.2 °C -10.9 °C 34395 hPa ESE 17.9 km/h 17.9 km/h 31 % 0 mm 819.0 W/m2 CLR
12:40 -0.3 °C -10.9 °C 34395 hPa Calm     31 % 0 mm 824.0 W/m2 CLR
12:45 -0.2 °C -11.2 °C 34395 hPa ENE 9 km/h 9 km/h 30 % 0 mm 831.0 W/m2 CLR
12:50 -0.1 °C -11 °C 34395 hPa ESE 10.3 km/h 10.3 km/h 30 % 0 mm 837.0 W/m2 CLR
12:55 0 °C -10.9 °C 34384.8 hPa SE 23.3 km/h 23.3 km/h 30 % 0 mm 844.0 W/m2 CLR
13:00 -0.1 °C -11.1 °C 34384.8 hPa East 25.9 km/h 25.9 km/h 30 % 0 mm 847.0 W/m2 CLR
13:05 0.1 °C -10.7 °C 34384.8 hPa SSE 2.6 km/h 2.6 km/h 31 % 0 mm 854.0 W/m2 CLR
13:10 0.2 °C -10.3 °C 34384.8 hPa East 15 km/h 15 km/h 32 % 0 mm 858.0 W/m2 CLR
13:15 0.2 °C -10.2 °C 34371.3 hPa ENE 15.6 km/h 15.6 km/h 32 % 0 mm 863.0 W/m2 CLR
13:20 0.3 °C -9.7 °C 34371.3 hPa ENE 25.9 km/h 25.9 km/h 34 % 0 mm 861.0 W/m2 CLR
13:25 0.3 °C -9.3 °C 34371.3 hPa ESE 20.9 km/h 20.9 km/h 35 % 0 mm 865.0 W/m2 CLR
13:30 0.4 °C -9.3 °C 34371.3 hPa East 20.9 km/h 20.9 km/h 35 % 0 mm 867.0 W/m2 CLR
13:35 0.5 °C -9.2 °C 34371.3 hPa ENE 9 km/h 9 km/h 35 % 0 mm 868.0 W/m2 CLR
13:40 0.6 °C -9.1 °C 34361.1 hPa East 20.9 km/h 20.9 km/h 35 % 0 mm 874.0 W/m2 CLR
13:45 0.6 °C -9.3 °C 34361.1 hPa ESE 15 km/h 15 km/h 34 % 0 mm 874.0 W/m2 CLR
13:50 0.7 °C -9.3 °C 34361.1 hPa NE 20.9 km/h 20.9 km/h 34 % 0 mm 872.0 W/m2 CLR
13:55 0.8 °C -9.2 °C 34347.6 hPa East 20.9 km/h 20.9 km/h 34 % 0 mm 879.0 W/m2 CLR
14:00 0.8 °C -9.2 °C 34347.6 hPa ENE 35.7 km/h 35.7 km/h 34 % 0 mm 875.0 W/m2 CLR
14:05 0.8 °C -9.5 °C 34347.6 hPa ENE 11.9 km/h 11.9 km/h 33 % 0 mm 881.0 W/m2 CLR
14:10 0.9 °C -10.5 °C 34347.6 hPa East 26.9 km/h 26.9 km/h 29 % 0 mm 877.0 W/m2 CLR
14:15 0.9 °C -10.2 °C 34347.6 hPa East 23.8 km/h 23.8 km/h 30 % 0 mm 881.0 W/m2 CLR
14:20 0.8 °C -10.6 °C 34347.6 hPa East 26.9 km/h 26.9 km/h 29 % 0 mm 882.0 W/m2 CLR
14:25 1.1 °C -10.3 °C 34337.4 hPa SE 29.8 km/h 29.8 km/h 29 % 0 mm 877.0 W/m2 CLR
14:27 1.2 °C -10.2 °C 34337.4 hPa ESE 29.8 km/h 29.8 km/h 29 % 0 mm 874.0 W/m2 CLR
14:32 1.2 °C -10.2 °C 34347.6 hPa SE 29.8 km/h 29.8 km/h 29 % 0 mm 874.0 W/m2 CLR
14:37 1 °C -10.1 °C 34337.4 hPa SE 32.8 km/h 32.8 km/h 30 % 0 mm 872.0 W/m2 CLR
14:42 0.9 °C -9.7 °C 34337.4 hPa SE 44.7 km/h 44.7 km/h 32 % 0 mm 865.0 W/m2 CLR
14:47 0.9 °C -9.6 °C 34337.4 hPa SE 29.8 km/h 29.8 km/h 32 % 0 mm 865.0 W/m2 CLR
14:52 0.8 °C -9.5 °C 34337.4 hPa ESE 23.3 km/h 23.3 km/h 33 % 0 mm 860.0 W/m2 CLR
14:57 0.7 °C -9.6 °C 34337.4 hPa East 35.7 km/h 35.7 km/h 33 % 0 mm 856.0 W/m2 CLR
15:02 0.8 °C -9.5 °C 34327.3 hPa ESE 32.8 km/h 32.8 km/h 33 % 0 mm 853.0 W/m2 CLR
15:07 0.8 °C -9.2 °C 34327.3 hPa ESE 41.4 km/h 41.4 km/h 34 % 0 mm 844.0 W/m2 CLR
15:12 0.8 °C -9.2 °C 34327.3 hPa SE 35.7 km/h 35.7 km/h 34 % 0 mm 842.0 W/m2 CLR
15:17 0.8 °C -9.2 °C 34327.3 hPa SE 47.6 km/h 47.6 km/h 34 % 0 mm 840.0 W/m2 CLR
15:22 0.5 °C -8.9 °C 34327.3 hPa SSE 47.6 km/h 47.6 km/h 36 % 0 mm 831.0 W/m2 CLR
15:25 0.4 °C -9 °C 34327.3 hPa ESE 38.8 km/h 38.8 km/h 36 % 0 mm 830.0 W/m2 CLR
15:30 0.7 °C -9.1 °C 34327.3 hPa ESE 47.6 km/h 47.6 km/h 35 % 0 mm 823.0 W/m2 CLR
15:35 0.7 °C -9.3 °C 34313.7 hPa East 44.7 km/h 44.7 km/h 34 % 0 mm 814.0 W/m2 CLR
15:41 0.7 °C -9.3 °C 34313.7 hPa SE 47.6 km/h 47.6 km/h 34 % 0 mm 805.0 W/m2 CLR
15:46 0.7 °C -9.3 °C 34313.7 hPa ESE 35.7 km/h 35.7 km/h 34 % 0 mm 796.0 W/m2 CLR
15:51 0.8 °C -8.9 °C 34313.7 hPa SE 29.8 km/h 30.6 km/h 35 % 0 mm 788.0 W/m2 CLR
15:56 0.9 °C -9.1 °C 34313.7 hPa ESE 50.7 km/h 50.7 km/h 34 % 0 mm 782.0 W/m2 CLR
16:01 0.8 °C -9 °C 34313.7 hPa ESE 35.7 km/h 35.7 km/h 35 % 0 mm 775.0 W/m2 CLR
16:06 0.7 °C -9.3 °C 34313.7 hPa ESE 53.6 km/h 53.6 km/h 34 % 0 mm 765.0 W/m2 CLR
16:11 0.7 °C -9.3 °C 34313.7 hPa ESE 44.7 km/h 44.7 km/h 34 % 0 mm 754.0 W/m2 CLR
16:16 0.7 °C -9.1 °C 34313.7 hPa ESE 35.7 km/h 35.7 km/h 35 % 0 mm 744.0 W/m2 CLR
16:21 0.6 °C -9.3 °C 34313.7 hPa ESE 44.7 km/h 44.7 km/h 34 % 0 mm 735.0 W/m2 CLR
16:26 0.7 °C -9.3 °C 34313.7 hPa SSE 44.7 km/h 44.7 km/h 34 % 0 mm 722.0 W/m2 CLR
16:31 0.8 °C -9.7 °C 34313.7 hPa SSE 50.7 km/h 50.7 km/h 32 % 0 mm 714.0 W/m2 CLR
16:36 0.7 °C -9.6 °C 34313.7 hPa ESE 50.7 km/h 50.7 km/h 33 % 0 mm 703.0 W/m2 CLR
16:41 0.8 °C -9.2 °C 34313.7 hPa ESE 35.7 km/h 35.7 km/h 34 % 0 mm 689.0 W/m2 CLR
16:46 0.7 °C -9.6 °C 34313.7 hPa SSE 44.7 km/h 44.7 km/h 33 % 0 mm 677.0 W/m2 CLR
16:51 0.6 °C -9.4 °C 34313.7 hPa East 50.7 km/h 50.7 km/h 34 % 0 mm 668.0 W/m2 CLR
16:56 0.4 °C -9.5 °C 34313.7 hPa ESE 38.8 km/h 38.8 km/h 34 % 0 mm 650.0 W/m2 CLR
17:01 0.4 °C -9.5 °C 34327.3 hPa South 35.7 km/h 36.7 km/h 34 % 0 mm 640.0 W/m2 CLR
17:06 0.3 °C -9.6 °C 34313.7 hPa SE 47.6 km/h 47.6 km/h 34 % 0 mm 631.0 W/m2 CLR
17:11 0.2 °C -9.5 °C 34313.7 hPa ESE 41.7 km/h 41.7 km/h 35 % 0 mm 619.0 W/m2 CLR
17:16 0.2 °C -9.5 °C 34327.3 hPa ESE 50.7 km/h 50.7 km/h 35 % 0 mm 603.0 W/m2 CLR
17:21 0.2 °C -9.5 °C 34327.3 hPa SE 47.6 km/h 47.6 km/h 35 % 0 mm 591.0 W/m2 CLR
17:26 0.2 °C -9.5 °C 34313.7 hPa SE 38.8 km/h 38.8 km/h 35 % 0 mm 578.0 W/m2 CLR
17:31 0.3 °C -9.4 °C 34313.7 hPa ESE 29.8 km/h 29.8 km/h 35 % 0 mm 564.0 W/m2 CLR
17:36 0.2 °C -9.4 °C 34313.7 hPa SE 32.8 km/h 32.8 km/h 35 % 0 mm 552.0 W/m2 CLR
17:41 0.1 °C -9.6 °C 34313.7 hPa SE 44.7 km/h 44.7 km/h 35 % 0 mm 536.0 W/m2 CLR
17:46 0.1 °C -9.3 °C 34313.7 hPa ESE 36.2 km/h 36.2 km/h 36 % 0 mm 526.0 W/m2 CLR
17:52 0 °C -9.7 °C 34313.7 hPa ESE 44.7 km/h 44.7 km/h 35 % 0 mm 510.0 W/m2 CLR
17:57 -0.2 °C -9.8 °C 34313.7 hPa ESE 47.6 km/h 47.6 km/h 35 % 0 mm 497.0 W/m2 CLR
18:02 -0.2 °C -9.8 °C 34313.7 hPa ESE 50.7 km/h 50.7 km/h 35 % 0 mm 480.0 W/m2 CLR
18:07 -0.2 °C -9.8 °C 34313.7 hPa SE 38.8 km/h 38.8 km/h 35 % 0 mm 464.0 W/m2 CLR
18:12 -0.1 °C -9.8 °C 34313.7 hPa ESE 46.7 km/h 46.7 km/h 35 % 0 mm 452.0 W/m2 CLR
18:17 -0.2 °C -9.8 °C 34313.7 hPa SE 44.7 km/h 44.7 km/h 35 % 0 mm 436.0 W/m2 CLR
18:22 -0.3 °C -9.7 °C 34313.7 hPa SE 23.8 km/h 23.8 km/h 36 % 0 mm 418.0 W/m2 CLR
18:27 -0.2 °C -9.8 °C 34313.7 hPa SE 26.9 km/h 26.9 km/h 35 % 0 mm 403.0 W/m2 CLR
18:32 -0.2 °C -9.8 °C 34313.7 hPa SE 29.8 km/h 29.8 km/h 35 % 0 mm 387.0 W/m2 CLR
18:37 -0.2 °C -9.6 °C 34313.7 hPa SE 41.7 km/h 41.7 km/h 36 % 0 mm 369.0 W/m2 CLR
18:42 -0.2 °C -9.8 °C 34313.7 hPa SE 35.7 km/h 35.7 km/h 35 % 0 mm 355.0 W/m2 CLR
18:47 -0.2 °C -10.1 °C 34313.7 hPa ESE 41.7 km/h 41.7 km/h 34 % 0 mm 336.0 W/m2 CLR
18:52 -0.3 °C -9.9 °C 34313.7 hPa ESE 29.8 km/h 29.8 km/h 35 % 0 mm 322.0 W/m2 CLR
18:57 -0.3 °C -9.7 °C 34313.7 hPa SE 46.7 km/h 46.7 km/h 36 % 0 mm 306.0 W/m2 CLR
19:02 -0.5 °C -9.8 °C 34313.7 hPa SE 47.6 km/h 47.6 km/h 36 % 0 mm 290.0 W/m2 CLR
19:07 -0.7 °C -9.9 °C 34313.7 hPa SE 44.7 km/h 44.7 km/h 36 % 0 mm 271.0 W/m2 CLR
19:12 -0.7 °C -9.9 °C 34313.7 hPa SE 44.7 km/h 44.7 km/h 36 % 0 mm 255.0 W/m2 CLR
19:17 -0.8 °C -10.1 °C 34313.7 hPa ESE 33.6 km/h 33.6 km/h 36 % 0 mm 241.0 W/m2 CLR
19:22 -0.7 °C -10.1 °C 34313.7 hPa SE 35.7 km/h 35.7 km/h 36 % 0 mm 223.0 W/m2 CLR
19:27 -0.7 °C -10.1 °C 34313.7 hPa SE 26.9 km/h 26.9 km/h 36 % 0 mm 204.0 W/m2 CLR
19:32 -0.8 °C -10.6 °C 34313.7 hPa ESE 41.7 km/h 41.7 km/h 34 % 0 mm 190.0 W/m2 CLR
19:37 -0.9 °C -10.7 °C 34313.7 hPa SE 35.7 km/h 35.7 km/h 34 % 0 mm 172.0 W/m2 CLR
19:42 -0.9 °C -10.7 °C 34313.7 hPa SE 28.5 km/h 28.5 km/h 34 % 0 mm 156.0 W/m2 CLR
19:47 -1 °C -10.8 °C 34313.7 hPa SSE 26.9 km/h 26.9 km/h 34 % 0 mm 139.0 W/m2 CLR
19:52 -1.1 °C -10.8 °C 34313.7 hPa SE 29.8 km/h 29.8 km/h 34 % 0 mm 121.0 W/m2 CLR
19:57 -1.1 °C -11.2 °C 34313.7 hPa SE 23.8 km/h 23.8 km/h 33 % 0 mm 105.0 W/m2 CLR
20:02 -1.2 °C -11.2 °C 34327.3 hPa SE 32.8 km/h 32.8 km/h 33 % 0 mm 90.0 W/m2 CLR
20:07 -1.2 °C -11.2 °C 34327.3 hPa SE 32.8 km/h 32.8 km/h 33 % 0 mm 76.0 W/m2 FEW
20:12 -1.3 °C -11.3 °C 34327.3 hPa ESE 29.8 km/h 29.8 km/h 33 % 0 mm 62.0 W/m2 SCT
20:17 -1.4 °C -11.2 °C 34327.3 hPa SE 23.8 km/h 23.8 km/h 34 % 0 mm 47.0 W/m2 SCT
20:22 -1.6 °C -11 °C 34327.3 hPa SSE 35.7 km/h 35.7 km/h 35 % 0 mm 40.0 W/m2 BKN
20:27 -1.7 °C -10.9 °C 34327.3 hPa SE 32.8 km/h 32.8 km/h 36 % 0 mm 30.0 W/m2 BKN
20:32 -1.8 °C -10.9 °C 34327.3 hPa South 20.9 km/h 20.9 km/h 36 % 0 mm 23.0 W/m2 BKN
20:37 -1.8 °C -10.8 °C 34337.4 hPa SE 31.1 km/h 31.1 km/h 37 % 0 mm 18.0 W/m2 BKN
20:42 -2 °C -10.9 °C 34337.4 hPa SE 29.8 km/h 29.8 km/h 37 % 0 mm 14.0 W/m2 BKN
20:47 -2.1 °C -10.8 °C 34337.4 hPa SSE 29.8 km/h 29.8 km/h 38 % 0 mm 11.0 W/m2 BKN
20:52 -2.2 °C -10.9 °C 34337.4 hPa SSE 29.8 km/h 29.8 km/h 38 % 0 mm 7.0 W/m2 BKN
20:57 -2.3 °C -10.7 °C 34337.4 hPa SE 20.9 km/h 20.9 km/h 39 % 0 mm 0.0 W/m2 OVC
21:02 -2.4 °C -10.8 °C 34337.4 hPa South 23.8 km/h 23.8 km/h 39 % 0 mm 0.0 W/m2 CLR
21:07 -2.4 °C -10.9 °C 34337.4 hPa SSE 15.6 km/h 15.6 km/h 39 % 0 mm 0.0 W/m2 CLR
21:12 -2.6 °C -10.9 °C 34337.4 hPa SSE 17.9 km/h 17.9 km/h 39 % 0 mm 0.0 W/m2 CLR
21:17 -2.6 °C -11.1 °C 34347.6 hPa ESE 10.3 km/h 10.3 km/h 39 % 0 mm 0.0 W/m2 CLR
21:22 -2.7 °C -10.9 °C 34347.6 hPa SSE 9 km/h 9 km/h 40 % 0 mm 0.0 W/m2 CLR
21:23 -2.7 °C -10.9 °C 34347.6 hPa ESE 5.1 km/h 5.1 km/h 40 % 0 mm 0.0 W/m2 CLR
21:28 -2.8 °C -11 °C 34347.6 hPa Calm     40 % 0 mm 0.0 W/m2 CLR
21:33 -2.9 °C -10.9 °C 34347.6 hPa ESE 9 km/h 9 km/h 41 % 0 mm 0.0 W/m2 CLR
21:38 -3.1 °C -10.6 °C 34347.6 hPa ESE 11.9 km/h 11.9 km/h 43 % 0 mm 0.0 W/m2 CLR
21:43 -3.2 °C -10.7 °C 34361.1 hPa ESE 15.6 km/h 15.6 km/h 43 % 0 mm 0.0 W/m2 CLR
21:48 -3.3 °C -10.6 °C 34361.1 hPa ESE 17.9 km/h 17.9 km/h 44 % 0 mm 0.0 W/m2 CLR
21:53 -3.3 °C -10.7 °C 34361.1 hPa SE 11.9 km/h 11.9 km/h 44 % 0 mm 0.0 W/m2 CLR
21:58 -3.4 °C -10.7 °C 34361.1 hPa Calm     44 % 0 mm 0.0 W/m2 CLR
22:03 -3.5 °C -10.8 °C 34371.3 hPa SSE 9 km/h 9 km/h 44 % 0 mm 0.0 W/m2 CLR
22:08 -3.5 °C -10.8 °C 34371.3 hPa SSE 15 km/h 15 km/h 44 % 0 mm 0.0 W/m2 CLR
22:13 -3.4 °C -11 °C 34361.1 hPa SE 12.9 km/h 12.9 km/h 43 % 0 mm 0.0 W/m2 CLR
22:18 -3.5 °C -11 °C 34371.3 hPa SE 12.9 km/h 12.9 km/h 43 % 0 mm 0.0 W/m2 CLR
22:23 -3.6 °C -11.1 °C 34371.3 hPa SE 9 km/h 9 km/h 43 % 0 mm 0.0 W/m2 CLR
22:28 -3.6 °C -11.3 °C 34371.3 hPa SE 9 km/h 9 km/h 42 % 0 mm 0.0 W/m2 CLR
22:33 -3.6 °C -11.1 °C 34371.3 hPa Calm     43 % 0 mm 0.0 W/m2 CLR
22:38 -3.7 °C -11.4 °C 34371.3 hPa SSE 7.7 km/h 7.7 km/h 42 % 0 mm 0.0 W/m2 CLR
22:43 -3.7 °C -11.4 °C 34371.3 hPa Calm     42 % 0 mm 0.0 W/m2 CLR
22:48 -3.8 °C -11.4 °C 34371.3 hPa SE 9 km/h 9 km/h 42 % 0 mm 0.0 W/m2 CLR
22:53 -3.8 °C -11.4 °C 34371.3 hPa SSE 6 km/h   42 % 0 mm 0.0 W/m2 CLR
22:58 -3.7 °C -11.6 °C 34371.3 hPa SE 9 km/h   41 % 0 mm 0.0 W/m2 CLR
23:03 -3.8 °C -11.4 °C 34371.3 hPa Calm     42 % 0 mm 0.0 W/m2 CLR
23:08 -3.9 °C -11.3 °C 34371.3 hPa Calm     43 % 0 mm 0.0 W/m2 CLR
23:13 -4 °C -11.3 °C 34371.3 hPa Calm     44 % 0 mm 0.0 W/m2 CLR
23:18 -4.1 °C -11.3 °C 34384.8 hPa Calm     44 % 0 mm 0.0 W/m2 CLR
23:23 -4.3 °C -11.5 °C 34384.8 hPa Calm     44 % 0 mm 0.0 W/m2 CLR
23:28 -4.5 °C -11.3 °C 34384.8 hPa Calm     46 % 0 mm 0.0 W/m2 CLR
23:33 -4.6 °C -11.1 °C 34384.8 hPa Calm     48 % 0 mm 0.0 W/m2 CLR
23:39 -4.7 °C -11.2 °C 34384.8 hPa Calm     48 % 0 mm 0.0 W/m2 CLR
23:44 -4.8 °C -11.3 °C 34384.8 hPa Calm     48 % 0 mm 0.0 W/m2 CLR
23:49 -4.8 °C -11.2 °C 34384.8 hPa Calm     49 % 0 mm 0.0 W/m2 CLR
23:54 -4.9 °C -11.2 °C 34384.8 hPa Calm     49 % 0 mm 0.0 W/m2 CLR
23:59 -4.9 °C -10.9 °C 34384.8 hPa Calm     51 % 0 mm 0.0 W/m2 CLR
Lo Temps de Massalio
Compliments of Weather Underground - 1.25 mb